Tracking 25195 objects as of 20-Jan-2022
HD Live streaming from Space Station
objects crossing your sky now

OBJECT D

Track OBJECT D now!
10-day predictions


NORAD ID: 45019
Int'l Code: 2020-003D
Perigee: 475.2 km
Apogee: 492.5 km
Inclination: 97.2 °
Period: 94.1 minutes
Semi major axis: 6854 km
RCS: Unknown
Launch date: January 15, 2020
Source: (TBD)
Launch site: Taiyaun Space Center, China (TSC)
aabbcc
Your satellite tracking list
Your tracking list is empty




NASA's NSSDC Master Catalog

Two Line Element Set (TLE):
1 45019U 20003D   22020.33101626  .00005064  00000-0  17821-3 0  9999
2 45019  97.2437  84.5225 0012599 174.3791 248.0751 15.29694509112435
Source of the keplerian elements: AFSPC